| time (UTC) | temp F | wind direction | speed MPH | gust MPH | rain 1hr in | rain 24hr in | rain mn in | humidity % | barometer mb |
| 20260906011529 | 87 | 146 | 4.0 | 7.0 | 0.00 | 0.00 | 0.00 | 21 | 1005.2 |
| 20260906010030 | 90 | 198 | 6.0 | 8.0 | 0.00 | 0.00 | 0.00 | 19 | 1005.2 |
| 20260906004529 | 91 | 161 | 6.0 | 11.0 | 0.00 | 0.00 | 0.00 | 19 | 1005.1 |
| 20260906003028 | 92 | 159 | 5.0 | 12.0 | 0.00 | 0.00 | 0.00 | 19 | 1005.2 |
| 20260906001527 | 92 | 215 | 5.0 | 12.0 | 0.00 | 0.00 | 0.00 | 19 | 1005.2 |
| 20260906000027 | 92 | 157 | 9.0 | 15.0 | 0.00 | 0.00 | 0.00 | 19 | 1005.2 |
| 20260905234527 | 92 | 112 | 3.0 | 15.0 | 0.00 | 0.00 | 0.00 | 19 | 1005.2 |
| 20260905233026 | 92 | 200 | 7.0 | 11.0 | 0.00 | 0.00 | 0.00 | 19 | 1005.2 |
| 20260905231528 | 91 | 149 | 6.0 | 10.0 | 0.00 | 0.00 | 0.00 | 20 | 1005.3 |
| 20260905230025 | 93 | 138 | 3.0 | 10.0 | 0.00 | 0.00 | 0.00 | 20 | 1005.2 |
| 20260905224523 | 92 | 156 | 9.0 | 13.0 | 0.00 | 0.00 | 0.00 | 19 | 1005.4 |
| 20260905223022 | 92 | 135 | 1.0 | 6.0 | 0.00 | 0.00 | 0.00 | 21 | 1005.5 |
| 20260905221521 | 92 | 123 | 6.0 | 12.0 | 0.00 | 0.00 | 0.00 | 19 | 1005.7 |
| 20260905220020 | 92 | 140 | 8.0 | 13.0 | 0.00 | 0.00 | 0.00 | 20 | 1005.7 |
| 20260905214521 | 90 | 48 | 5.0 | 9.0 | 0.00 | 0.00 | 0.00 | 22 | 1005.9 |
| 20260905213020 | 90 | 28 | 2.0 | 7.0 | 0.00 | 0.00 | 0.00 | 23 | 1006.2 |
| 20260905211517 | 89 | 36 | 3.0 | 7.0 | 0.00 | 0.00 | 0.00 | 24 | 1006.3 |
| 20260905210017 | 88 | 12 | 7.0 | 13.0 | 0.00 | 0.00 | 0.00 | 25 | 1006.5 |
| 20260905204512 | 88 | 24 | 9.0 | 15.0 | 0.00 | 0.00 | 0.00 | 25 | 1006.7 |
| 20260905203010 | 87 | 16 | 8.0 | 15.0 | 0.00 | 0.00 | 0.00 | 24 | 1006.8 |
| 20260905201505 | 85 | 35 | 7.0 | 14.0 | 0.00 | 0.00 | 0.00 | 26 | 1007.1 |
| 20260905200002 | 84 | 329 | 9.0 | 16.0 | 0.00 | 0.00 | 0.00 | 26 | 1007.3 |
| 20260905194600 | 84 | 52 | 8.0 | 13.0 | 0.00 | 0.00 | 0.00 | 27 | 1007.4 |
| 20260905193057 | 83 | 359 | 7.0 | 13.0 | 0.00 | 0.00 | 0.00 | 27 | 1007.7 |
| 20260905191553 | 82 | 26 | 5.0 | 12.0 | 0.00 | 0.00 | 0.00 | 28 | 1007.8 |
| 20260905190052 | 82 | 42 | 5.0 | 11.0 | 0.00 | 0.00 | 0.00 | 28 | 1008.0 |
| 20260905184550 | 81 | 23 | 4.0 | 11.0 | 0.00 | 0.00 | 0.00 | 28 | 1008.2 |
| 20260905183049 | 80 | 5 | 4.0 | 10.0 | 0.00 | 0.00 | 0.00 | 29 | 1008.4 |
| 20260905181548 | 80 | 22 | 2.0 | 9.0 | 0.00 | 0.00 | 0.00 | 30 | 1008.6 |
| 20260905180047 | 79 | 28 | 6.0 | 11.0 | 0.00 | 0.00 | 0.00 | 30 | 1008.9 |
| 20260905174547 | 79 | 7 | 3.0 | 6.0 | 0.00 | 0.00 | 0.00 | 30 | 1009.1 |
| 20260905173044 | 78 | 354 | 2.0 | 4.0 | 0.00 | 0.00 | 0.00 | 30 | 1009.2 |
| 20260905171555 | 77 | 85 | 0.0 | 6.0 | 0.00 | 0.00 | 0.00 | 30 | 1009.3 |
| 20260905170040 | 76 | 220 | 0.0 | 3.0 | 0.00 | 0.00 | 0.00 | 30 | 1009.4 |
| 20260905164545 | 75 | 133 | 0.0 | 9.0 | 0.00 | 0.00 | 0.00 | 33 | 1009.5 |
| 20260905163048 | 74 | 34 | 3.0 | 8.0 | 0.00 | 0.00 | 0.00 | 33 | 1009.7 |
| 20260905161535 | 73 | 19 | 0.0 | 6.0 | 0.00 | 0.00 | 0.00 | 33 | 1009.7 |
| 20260905160033 | 72 | 341 | 0.0 | 3.0 | 0.00 | 0.00 | 0.00 | 33 | 1009.8 |
| 20260905154530 | 70 | 327 | 0.0 | 3.0 | 0.00 | 0.00 | 0.00 | 34 | 1009.8 |
| 20260905153028 | 68 | 126 | 0.0 | 1.0 | 0.00 | 0.00 | 0.00 | 34 | 1009.9 |
| 20260905151527 | 66 | 358 | 0.0 | 1.0 | 0.00 | 0.00 | 0.00 | 37 | 1010.0 |
| 20260905150038 | 64 | 353 | 0.0 | 1.0 | 0.00 | 0.00 | 0.00 | 40 | 1010.2 |
| 20260905144533 | 61 | 343 | 0.0 | 1.0 | 0.00 | 0.00 | 0.00 | 43 | 1010.4 |
| 20260905143026 | 60 | 343 | 0.0 | 1.0 | 0.00 | 0.00 | 0.00 | 44 | 1010.5 |
| 20260905141525 | 58 | 343 | 0.0 | 1.0 | 0.00 | 0.00 | 0.00 | 46 | 1010.5 |
| 20260905140023 | 58 | 149 | 0.0 | 1.0 | 0.00 | 0.00 | 0.00 | 43 | 1010.4 |
| 20260905134524 | 56 | 58 | 0.0 | 1.0 | 0.00 | 0.00 | 0.00 | 45 | 1010.2 |
| 20260905133020 | 54 | 153 | 0.0 | 0.0 | 0.00 | 0.00 | 0.00 | 45 | 1010.2 |
| 20260905131531 | 53 | 153 | 0.0 | 0.0 | 0.00 | 0.00 | 0.00 | 44 | 1010.0 |
| 20260905130014 | 54 | 153 | 0.0 | 0.0 | 0.00 | 0.00 | 0.00 | 44 | 1009.6 |
| 20260905124515 | 55 | 153 | 0.0 | 0.0 | 0.00 | 0.00 | 0.00 | 41 | 1009.6 |
| 20260905123010 | 55 | 134 | 2.0 | 3.0 | 0.00 | 0.00 | 0.00 | 42 | 1009.3 |
| 20260905121508 | 55 | 81 | 0.0 | 1.0 | 0.00 | 0.00 | 0.00 | 44 | 1009.0 |
| 20260905120019 | 56 | 133 | 1.0 | 2.0 | 0.00 | 0.00 | 0.00 | 43 | 1008.8 |
| 20260905114513 | 56 | 212 | 0.0 | 0.0 | 0.00 | 0.00 | 0.00 | 44 | 1008.9 |
| 20260905113004 | 55 | 208 | 0.0 | 1.0 | 0.00 | 0.00 | 0.00 | 45 | 1008.7 |
| 20260905111502 | 54 | 132 | 0.0 | 1.0 | 0.00 | 0.00 | 0.00 | 46 | 1008.6 |
| 20260905110001 | 55 | 206 | 0.0 | 1.0 | 0.00 | 0.00 | 0.00 | 46 | 1008.6 |
| 20260905104616 | 57 | 232 | 0.0 | 1.0 | 0.00 | 0.00 | 0.00 | 43 | 1008.4 |
| 20260905103054 | 57 | 218 | 0.0 | 1.0 | 0.00 | 0.00 | 0.00 | 43 | 1008.1 |
| 20260905101553 | 60 | 133 | 1.0 | 4.0 | 0.00 | 0.00 | 0.00 | 38 | 1008.1 |
| 20260905100050 | 61 | 257 | 0.0 | 2.0 | 0.00 | 0.00 | 0.00 | 37 | 1008.0 |
| 20260905094650 | 63 | 128 | 0.0 | 3.0 | 0.00 | 0.00 | 0.00 | 36 | 1007.6 |
| 20260905093049 | 61 | 126 | 0.0 | 6.0 | 0.00 | 0.00 | 0.00 | 38 | 1007.5 |
| 20260905091548 | 62 | 137 | 0.0 | 2.0 | 0.00 | 0.00 | 0.00 | 37 | 1007.4 |
| 20260905090043 | 64 | 110 | 0.0 | 1.0 | 0.00 | 0.00 | 0.00 | 34 | 1007.2 |
| 20260905084555 | 64 | 143 | 2.0 | 4.0 | 0.00 | 0.00 | 0.00 | 32 | 1007.1 |
| 20260905083040 | 65 | 144 | 1.0 | 2.0 | 0.00 | 0.00 | 0.00 | 32 | 1006.9 |
| 20260905081541 | 65 | 63 | 0.0 | 3.0 | 0.00 | 0.00 | 0.00 | 32 | 1006.7 |
| 20260905080038 | 65 | 214 | 1.0 | 3.0 | 0.00 | 0.00 | 0.00 | 31 | 1006.8 |
| 20260905074537 | 64 | 220 | 2.0 | 4.0 | 0.00 | 0.00 | 0.00 | 31 | 1006.6 |
| 20260905073035 | 62 | 185 | 2.0 | 4.0 | 0.00 | 0.00 | 0.00 | 32 | 1006.6 |
| 20260905071539 | 65 | 315 | 0.0 | 6.0 | 0.00 | 0.00 | 0.00 | 30 | 1006.7 |
| 20260905070032 | 62 | 262 | 0.0 | 1.0 | 0.00 | 0.00 | 0.00 | 32 | 1006.5 |
| 20260905064529 | 64 | 223 | 0.0 | 0.0 | 0.00 | 0.00 | 0.00 | 29 | 1006.2 |
| 20260905063028 | 64 | 224 | 2.0 | 3.0 | 0.00 | 0.00 | 0.00 | 29 | 1006.1 |
| 20260905061531 | 67 | 132 | 0.0 | 2.0 | 0.00 | 0.00 | 0.00 | 27 | 1005.7 |
| 20260905060046 | 67 | 144 | 1.0 | 2.0 | 0.00 | 0.00 | 0.00 | 27 | 1005.6 |
| 20260905054529 | 67 | 127 | 0.0 | 3.0 | 0.00 | 0.00 | 0.00 | 28 | 1005.6 |
| 20260905053024 | 66 | 203 | 3.0 | 11.0 | 0.00 | 0.00 | 0.00 | 30 | 1005.4 |
| 20260905051534 | 68 | 127 | 0.0 | 4.0 | 0.00 | 0.00 | 0.00 | 33 | 1005.4 |
| 20260905050027 | 69 | 134 | 7.0 | 13.0 | 0.00 | 0.00 | 0.00 | 25 | 1005.4 |
| 20260905044522 | 67 | 206 | 0.0 | 0.0 | 0.00 | 0.00 | 0.00 | 26 | 1005.1 |
| 20260905043023 | 70 | 156 | 0.0 | 3.0 | 0.00 | 0.00 | 0.00 | 23 | 1005.0 |
| 20260905041522 | 70 | 166 | 0.0 | 0.0 | 0.00 | 0.00 | 0.00 | 23 | 1004.9 |
| 20260905040023 | 70 | 305 | 0.0 | 1.0 | 0.00 | 0.00 | 0.00 | 24 | 1004.8 |
| 20260905034523 | 72 | 322 | 0.0 | 1.0 | 0.00 | 0.00 | 0.00 | 22 | 1004.7 |
| 20260905033021 | 73 | 124 | 0.0 | 2.0 | 0.00 | 0.00 | 0.00 | 22 | 1004.4 |
| 20260905031524 | 77 | 126 | 3.0 | 4.0 | 0.00 | 0.00 | 0.00 | 20 | 1004.4 |
| 20260905030021 | 77 | 233 | 0.0 | 3.0 | 0.00 | 0.00 | 0.00 | 20 | 1004.2 |
| 20260905024538 | 78 | 167 | 3.0 | 5.0 | 0.00 | 0.00 | 0.00 | 19 | 1004.1 |
| 20260905023022 | 80 | 204 | 2.0 | 4.0 | 0.00 | 0.00 | 0.00 | 18 | 1003.9 |
| 20260905021521 | 81 | 156 | 4.0 | 6.0 | 0.00 | 0.00 | 0.00 | 18 | 1003.7 |
| 20260905020020 | 82 | 136 | 4.0 | 6.0 | 0.00 | 0.00 | 0.00 | 18 | 1003.5 |
| 20260905014519 | 83 | 137 | 3.0 | 6.0 | 0.00 | 0.00 | 0.00 | 17 | 1003.3 |
| 20260905013023 | 86 | 151 | 5.0 | 8.0 | 0.00 | 0.00 | 0.00 | 16 | 1003.1 |